DL1DUR-2 Weather Reports


Display with metric or nautical units.
time (UTC)temp
F
wind
direction
speed
MPH
gust
MPH
rain 1hr
in
rain 24hr
in
rain mn
in
humidity
%
barometer
mb
20260506090205 62 231 6.0 17.0 0.00 0.31 0.30 79 1006.5
20260506085704 62 203 7.0 17.0 0.00 0.31 0.30 78 1006.4
20260506084204 62 233 5.0 18.0 0.00 0.31 0.30 78 1006.3
20260506083704 62 140 7.0 18.0 0.00 0.31 0.30 79 1006.1
20260506083204 61 242 7.0 18.0 0.00 0.31 0.30 80 1006.0
20260506082704 61 229 6.0 17.0 0.00 0.31 0.30 80 1006.0
20260506082204 61 183 7.0 17.0 0.00 0.31 0.30 81 1006.0
20260506081204 61 211 5.0 15.0 0.00 0.31 0.30 80 1006.0
20260506080704 61 294 6.0 15.0 0.00 0.31 0.30 82 1005.8
20260506080204 60 240 8.0 15.0 0.00 0.31 0.30 81 1005.8
20260506072205 59 250 5.0 12.0 0.00 0.31 0.30 83 1005.6
20260506071705 59 224 5.0 14.0 0.00 0.31 0.30 84 1005.6
20260506071204 58 242 6.0 16.0 0.00 0.31 0.30 84 1005.5
20260506070704 58 209 7.0 16.0 0.00 0.31 0.30 85 1005.4
20260506070204 58 253 6.0 16.0 0.00 0.31 0.30 86 1005.5
20260506062204 56 214 6.0 16.0 0.00 0.31 0.30 88 1005.7
20260506061704 56 185 6.0 16.0 0.00 0.31 0.30 88 1005.6
20260506061203 57 271 7.0 15.0 0.00 0.31 0.30 87 1005.6
20260506060704 57 244 7.0 18.0 0.00 0.31 0.30 88 1005.5
20260506060204 57 238 7.0 18.0 0.00 0.31 0.30 88 1005.5
20260506050704 56 256 7.0 15.0 0.00 0.31 0.30 93 1005.2
20260506050204 55 227 6.0 15.0 0.00 0.31 0.30 93 1004.8
20260506044704 55 229 6.0 14.0 0.00 0.31 0.30 94 1004.8
20260506044204 55 240 6.0 13.0 0.00 0.31 0.30 95 1004.8
20260506043704 55 256 5.0 13.0 0.00 0.31 0.30 95 1004.6
20260506043207 55 263 5.0 14.0 0.00 0.31 0.30 95 1004.6
20260506042704 54 178 5.0 14.0 0.00 0.31 0.30 96 1004.7
20260506042203 54 206 4.0 9.0 0.00 0.31 0.30 96 1004.7
20260506041704 54 193 4.0 8.0 0.00 0.31 0.30 96 1004.8
20260506041204 54 262 3.0 9.0 0.00 0.31 0.30 96 1004.9
20260506040704 54 257 3.0 11.0 0.00 0.31 0.30 96 1004.7
20260506040204 53 253 3.0 11.0 0.00 0.31 0.30 96 1004.5
20260506035204 53 227 4.0 12.0 0.00 0.31 0.30 96 1004.6
20260506034704 53 254 4.0 12.0 0.00 0.31 0.30 96 1004.6
20260506034204 53 188 3.0 7.0 0.00 0.31 0.30 96 1004.6
20260506033204 53 228 2.0 9.0 0.00 0.31 0.30 96 1004.7
20260506032704 53 230 2.0 9.0 0.00 0.31 0.30 96 1004.7
20260506032204 53 221 2.0 12.0 0.00 0.31 0.30 96 1004.7
20260506031704 53 257 4.0 12.0 0.00 0.31 0.30 96 1004.7
20260506031204 53 225 5.0 12.0 0.00 0.31 0.30 96 1004.8
20260506030705 53 304 3.0 10.0 0.00 0.31 0.30 96 1004.9
20260506025704 53 229 3.0 9.0 0.00 0.31 0.30 96 1004.7
20260506024704 53 208 1.0 3.0 0.00 0.31 0.30 96 1004.8
20260506024204 53 26 0.0 2.0 0.01 0.31 0.30 96 1004.7
20260506023704 53 113 0.0 1.0 0.01 0.31 0.30 96 1004.7
20260506022704 53 134 0.0 4.0 0.01 0.31 0.30 96 1004.7
20260506022204 53 134 1.0 6.0 0.01 0.31 0.30 96 1004.9
20260506021704 53 246 2.0 6.0 0.01 0.31 0.30 96 1004.8
20260506021204 53 236 2.0 4.0 0.01 0.31 0.30 96 1004.8
20260506020704 53 238 2.0 4.0 0.01 0.31 0.30 96 1004.9
20260506015204 54 256 2.0 5.0 0.01 0.31 0.30 96 1004.7
20260506014704 54 280 3.0 5.0 0.00 0.31 0.29 96 1004.7
20260506014204 54 279 2.0 5.0 0.00 0.31 0.29 96 1004.7
20260506013204 54 301 0.0 0.0 0.01 0.31 0.29 96 1004.8
20260506012704 54 264 0.0 0.0 0.02 0.31 0.29 96 1004.8
20260506012204 54 264 0.0 0.0 0.02 0.31 0.29 96 1004.9
20260506011704 54 275 0.0 0.0 0.02 0.31 0.29 96 1004.9
20260506010704 54 188 0.0 0.0 0.04 0.31 0.29 96 1005.0
20260506010204 54 188 0.0 3.0 0.04 0.31 0.29 96 1005.1
20260506005704 54 188 0.0 3.0 0.05 0.31 0.29 95 1005.3
20260506005204 54 188 0.0 6.0 0.06 0.31 0.29 95 1005.3
20260506004705 54 233 1.0 6.0 0.06 0.31 0.29 95 1005.4
20260506004204 55 173 2.0 6.0 0.07 0.31 0.29 95 1005.2
20260506003705 55 188 4.0 6.0 0.08 0.30 0.28 95 1005.1
20260506003204 55 171 3.0 6.0 0.09 0.29 0.28 95 1005.1
20260506002704 55 148 3.0 6.0 0.10 0.28 0.27 95 1005.2
20260506002204 55 134 2.0 5.0 0.12 0.28 0.27 94 1005.1
20260506001704 55 142 3.0 5.0 0.13 0.28 0.27 94 1005.3
20260506001204 55 129 3.0 5.0 0.12 0.28 0.26 94 1005.4
20260506000705 55 140 2.0 4.0 0.11 0.27 0.25 94 1005.7
20260506000205 55 154 2.0 3.0 0.11 0.26 0.24 94 1005.7
20260505235705 55 131 1.0 3.0 0.12 0.26 0.24 94 1005.8
20260505234704 55 134 1.0 4.0 0.13 0.24 0.23 93 1005.9
20260505234204 55 59 1.0 4.0 0.13 0.23 0.21 93 1005.8
20260505233704 55 338 1.0 5.0 0.12 0.22 0.20 93 1005.9
20260505233204 55 328 2.0 5.0 0.10 0.20 0.18 93 1006.0
20260505232704 56 327 1.0 6.0 0.11 0.18 0.17 92 1006.1
20260505231704 56 304 3.0 10.0 0.12 0.16 0.14 92 1006.2
20260505231204 56 317 4.0 15.0 0.13 0.16 0.14 92 1006.1
20260505230704 56 314 5.0 16.0 0.13 0.15 0.13 92 1005.9
20260505230204 56 309 8.0 16.0 0.13 0.14 0.13 92 1005.9
20260505225204 57 322 9.0 20.0 0.12 0.12 0.10 92 1006.0
20260505224704 57 306 11.0 20.0 0.11 0.11 0.09 91 1006.2
20260505224204 57 333 11.0 19.0 0.10 0.10 0.09 90 1006.4
20260505223204 58 286 8.0 19.0 0.09 0.09 0.08 90 1006.6
20260505222705 58 326 5.0 10.0 0.06 0.06 0.05 90 1006.8
20260505222204 58 292 4.0 7.0 0.05 0.05 0.03 90 1006.8
20260505221204 59 251 3.0 5.0 0.03 0.03 0.02 88 1006.7
20260505220704 59 257 3.0 5.0 0.02 0.02 0.00 87 1006.4
20260505220204 59 316 3.0 5.0 0.02 0.02 0.02 86 1006.3
20260505215704 59 295 2.0 4.0 0.00 0.00 0.00 85 1006.0
20260505214705 60 0 1.0 4.0 0.00 0.00 0.00 84 1005.8
20260505214204 60 5 1.0 5.0 0.00 0.00 0.00 83 1005.8
20260505213704 60 14 2.0 5.0 0.00 0.00 0.00 83 1005.6
20260505213204 60 87 2.0 7.0 0.00 0.00 0.00 82 1005.6
20260505212704 60 57 3.0 7.0 0.00 0.00 0.00 82 1005.5
20260505212204 60 11 3.0 7.0 0.00 0.00 0.00 81 1005.5
20260505211205 61 120 2.0 7.0 0.00 0.00 0.00 80 1005.5
20260505210204 61 50 3.0 7.0 0.00 0.00 0.00 79 1005.4
20260505205704 61 84 2.0 5.0 0.00 0.00 0.00 79 1005.5
20260505205204 61 73 2.0 5.0 0.00 0.00 0.00 79 1005.5
20260505204704 61 73 2.0 10.0 0.00 0.00 0.00 79 1005.6
20260505204204 61 67 3.0 10.0 0.00 0.00 0.00 78 1005.6
20260505203704 61 75 4.0 10.0 0.00 0.00 0.00 78 1005.6
20260505203204 62 97 3.0 10.0 0.00 0.00 0.00 78 1005.8
20260505202704 62 71 4.0 10.0 0.00 0.00 0.00 78 1005.9
20260505202204 62 139 4.0 8.0 0.00 0.00 0.00 78 1005.8
20260505201704 62 84 3.0 10.0 0.00 0.00 0.00 78 1005.9
20260505201204 62 90 4.0 10.0 0.00 0.00 0.00 78 1005.9
20260505195705 62 102 4.0 8.0 0.00 0.00 0.00 77 1006.0
20260505195204 63 127 4.0 11.0 0.00 0.00 0.00 77 1006.1
20260505194704 63 32 4.0 11.0 0.00 0.00 0.00 77 1006.2
20260505193704 63 106 4.0 9.0 0.00 0.00 0.00 76 1006.4
20260505193205 63 79 5.0 10.0 0.00 0.00 0.00 76 1006.4
20260505192704 63 113 6.0 11.0 0.00 0.00 0.00 76 1006.5
20260505192204 63 86 6.0 11.0 0.00 0.00 0.00 76 1006.5
20260505191704 63 69 6.0 11.0 0.00 0.00 0.00 76 1006.4
20260505191205 63 88 5.0 10.0 0.00 0.00 0.00 76 1006.5
20260505190704 63 103 5.0 7.0 0.00 0.00 0.00 75 1006.5
20260505190205 64 91 3.0 7.0 0.00 0.00 0.00 75 1006.3
20260505185704 64 62 2.0 7.0 0.00 0.00 0.00 75 1006.2
20260505185204 64 51 3.0 7.0 0.00 0.00 0.00 74 1006.2
20260505184704 64 80 3.0 6.0 0.00 0.00 0.00 74 1006.1
20260505184204 64 83 3.0 6.0 0.00 0.00 0.00 74 1006.1
20260505183204 65 34 2.0 9.0 0.00 0.00 0.00 73 1006.2
20260505182704 65 36 3.0 9.0 0.00 0.00 0.00 72 1006.2
20260505182204 65 5 3.0 9.0 0.00 0.00 0.00 72 1006.3
20260505181704 65 105 3.0 6.0 0.00 0.00 0.00 72 1006.3
20260505181204 66 80 2.0 6.0 0.00 0.00 0.00 72 1006.4
20260505180704 66 112 2.0 10.0 0.00 0.00 0.00 71 1006.5
20260505180205 66 19 2.0 10.0 0.00 0.00 0.00 71 1006.6
20260505175705 66 37 3.0 10.0 0.00 0.00 0.00 71 1006.6
20260505175204 67 100 3.0 7.0 0.00 0.00 0.00 71 1006.4
20260505174204 67 98 3.0 9.0 0.00 0.00 0.00 70 1006.7
20260505173704 67 88 3.0 8.0 0.00 0.00 0.00 70 1006.8
20260505173204 67 94 3.0 9.0 0.00 0.00 0.00 70 1006.9
20260505171704 68 90 4.0 13.0 0.00 0.00 0.00 68 1006.9
20260505171205 69 101 4.0 10.0 0.00 0.00 0.00 68 1006.8
20260505170704 69 106 3.0 10.0 0.00 0.00 0.00 67 1007.0
20260505170205 69 61 3.0 8.0 0.00 0.00 0.00 67 1007.0
20260505165204 69 346 3.0 12.0 0.00 0.00 0.00 67 1006.8
20260505164704 69 14 3.0 12.0 0.00 0.00 0.00 67 1006.8
20260505164204 69 97 3.0 12.0 0.00 0.00 0.00 67 1006.8
20260505163704 69 9 4.0 9.0 0.00 0.00 0.00 68 1006.8
20260505163204 69 77 3.0 9.0 0.00 0.00 0.00 67 1006.8
20260505162704 69 92 3.0 9.0 0.00 0.00 0.00 67 1006.8
20260505162204 69 42 3.0 9.0 0.00 0.00 0.00 67 1006.8
20260505161704 70 94 4.0 9.0 0.00 0.00 0.00 66 1006.8
20260505161204 70 53 4.0 10.0 0.00 0.00 0.00 66 1006.9
20260505160704 70 28 3.0 12.0 0.00 0.00 0.00 65 1006.9
20260505160204 70 53 4.0 12.0 0.00 0.00 0.00 65 1007.0
20260505152704 71 351 4.0 11.0 0.00 0.00 0.00 61 1007.4
20260505152204 72 54 5.0 11.0 0.00 0.00 0.00 61 1007.5
20260505151205 72 5 5.0 13.0 0.00 0.00 0.00 62 1007.5
20260505150704 73 355 5.0 13.0 0.00 0.00 0.00 62 1007.5
20260505150204 73 5 5.0 12.0 0.00 0.00 0.00 61 1007.4
20260505140205 74 347 4.0 11.0 0.00 0.00 0.00 54 1007.8
20260505130204 75 266 4.0 11.0 0.00 0.00 0.00 52 1008.2
20260505124704 75 38 5.0 10.0 0.00 0.00 0.00 54 1008.3
20260505124205 74 269 4.0 10.0 0.00 0.00 0.00 54 1008.3
20260505123704 74 11 4.0 10.0 0.00 0.00 0.00 53 1008.3
20260505123205 75 51 3.0 9.0 0.00 0.00 0.00 50 1008.4
20260505122704 75 5 3.0 9.0 0.00 0.00 0.00 53 1008.5
20260505122205 75 14 4.0 9.0 0.00 0.00 0.00 55 1008.5
20260505121704 75 30 4.0 11.0 0.00 0.00 0.00 53 1008.5
20260505121204 75 15 4.0 11.0 0.00 0.00 0.00 54 1008.3
20260505120704 75 18 4.0 11.0 0.00 0.00 0.00 55 1008.4
20260505120204 74 349 4.0 10.0 0.00 0.00 0.00 54 1008.4
20260505115204 74 333 4.0 9.0 0.00 0.00 0.00 56 1008.4
20260505114704 74 46 4.0 14.0 0.00 0.00 0.00 57 1008.3
20260505114205 73 15 5.0 14.0 0.00 0.00 0.00 58 1008.4
20260505113704 74 26 6.0 14.0 0.00 0.00 0.00 57 1008.6
20260505112204 75 302 3.0 5.0 0.00 0.00 0.00 55 1008.5
20260505111704 74 295 3.0 5.0 0.00 0.00 0.00 53 1008.5
20260505111205 74 309 2.0 7.0 0.00 0.00 0.00 53 1008.6
20260505110704 74 5 3.0 7.0 0.00 0.00 0.00 54 1008.6
20260505110204 74 271 3.0 7.0 0.00 0.00 0.00 53 1008.6
20260505102204 74 9 2.0 4.0 0.00 0.00 0.00 52 1008.9
20260505101204 74 337 2.0 6.0 0.00 0.00 0.00 48 1009.0
20260505100704 74 97 2.0 6.0 0.00 0.00 0.00 49 1009.1
20260505095705 74 44 2.0 6.0 0.00 0.00 0.00 51 1009.2
20260505095204 74 41 2.0 6.0 0.00 0.00 0.00 53 1009.2
20260505094704 74 325 2.0 6.0 0.00 0.00 0.00 50 1009.3
20260505093204 74 327 2.0 6.0 0.00 0.00 0.00 54 1009.2
20260505092205 73 346 3.0 9.0 0.00 0.00 0.00 55 1009.2
20260505091704 73 23 3.0 9.0 0.00 0.00 0.00 55 1009.3
20260505091204 73 25 3.0 6.0 0.00 0.00 0.00 55 1009.4